Simultaneous Nadir Overpasses (SNOs) Predictions

Prediction of SNOs between FY3D and METOP-C Satellite Orbit:

Table of predicted SNOs for the next 14.0 days since TLE Epoch: 9/7/2025
Index Date (FY3D) Time (FY3D) Lat,Lon (FY3D) SZA (FY3D ) Date (METOP-C) Time (METOP-C) Lat,Lon (METOP-C) SZA (METOP-C ) Distance(km) Time Diff (sec)
1 09/07/2025 08:08:25 77.17, 62.94 71.24 09/07/2025 08:07:58 77.17, 62.84 71.23 2.43 27
2 09/07/2025 08:59:09 -77.18,-129.82 108.74 09/07/2025 08:58:39 -77.18,-129.77 108.74 1.37 30
3 09/07/2025 09:49:55 77.19, 37.47 71.28 09/07/2025 09:49:19 77.19, 37.61 71.29 3.54 36
4 09/07/2025 10:40:38 -77.16,-155.10 108.73 09/07/2025 10:40:01 -77.17,-155.18 108.73 2.04 37
5 09/07/2025 11:31:24 77.17, 12.19 71.29 09/07/2025 11:30:41 77.18, 12.19 71.30 1.04 43
6 09/07/2025 12:22:08 -77.18, 179.43 108.69 09/07/2025 12:21:23 -77.15, 179.41 108.73 3.90 45
7 09/07/2025 13:12:53 77.15, -13.09 71.30 09/07/2025 13:12:03 77.16, -13.22 71.30 3.49 50
8 09/07/2025 14:03:37 -77.16, 154.15 108.68 09/07/2025 14:02:44 -77.18, 154.18 108.67 1.41 53
9 09/07/2025 14:54:23 77.17, -38.56 71.34 09/07/2025 14:53:24 77.19, -38.45 71.36 3.25 59
10 09/07/2025 15:45:06 -77.14, 128.87 108.67 09/07/2025 15:44:06 -77.16, 128.76 108.66 3.23 60
11 09/07/2025 16:35:52 77.15, -63.84 71.35 09/07/2025 16:34:46 77.17, -63.86 71.37 2.26 66
12 09/07/2025 17:26:36 -77.16, 103.41 108.62 09/07/2025 17:25:28 -77.14, 103.35 108.66 3.06 68
13 09/07/2025 18:17:22 77.17, -89.31 71.40 09/07/2025 18:16:08 77.15, -89.28 71.37 2.30 74
14 09/07/2025 19:08:04 -77.10, 78.32 108.65 09/07/2025 19:06:50 -77.12, 77.93 108.65 9.73 74
15 09/07/2025 19:58:44 76.85,-113.29 71.14 09/07/2025 19:57:36 76.87,-115.77 71.10 62.73 68
16 09/07/2025 20:49:26 -76.78, 54.31 108.91 09/07/2025 20:48:20 -76.76, 51.10 109.02 81.69 66



Historial Predications of SNOs between FY3D and METOP-C
